STARLINK-4182 (53281 NORAD) Tracking and Keplerian Element Data

This shows tracking and keplerian element data for the satellite.

Feedback or suggestion? Click here.




ElementValue
Catalog53281
NameSTARLINK-4182
Epoch Orbit1081
Epoch Day270.25001157
Epoch Year2022
RAAN83.2145
Inclination53.2175
Eccentricity0.0001217
Argument of Perigee70.9747
Mean Anonmoly82.9339
Mean Motion15.63056101
Decay Rate-0.01062832
L11 53281U 22086AR 22270.25001157 -.01062832 00000+0 -12592-1 0 9994
L22 53281 53.2175 83.2145 0001217 70.9747 82.9339 15.63056101 10814

Live tracking and technical data element details for STARLINK-4182 (NORAD 53281). STARLINK-4182 can be tracked NOW for your location showing map with azimuth and elevation plus other details from your city location.

Track the satellite on the map from your city or location and see movement details for azimuth, elevation, latitude, longitude, range, height, and movement on the map or in text.







IsCatalogInMostPopularTable: catalog: 53281, numindb: 5
Update: records affected: 1



GetName: 53281 STARLINK-4182

Hit Count: updated at: Fri, 30 Sep 2022 03:33:17 GMT